Home > Weather > Kolkata > Past weeks

Flag for India Weather for the Past 2 Weeks in Kolkata, West Bengal, India

Now
84 °F

Haze.


Feels Like: 86 °F
Forecast: 71 / 85 °F
Wind: 5 mph from Southeast

Location: Calcutta / Dum Dum

Current Time: Feb 13, 2016 at 5:04:50 PM

Latest Report: Feb 13, 2016 at 4:30 PM


Visibility: 2 mi

Pressure: 29.86 "Hg

Humidity: 51%

Dew point: 64 °F

Location of KolkataLocation

Historic Weather in Kolkata — Graph

°F

Kolkata Temperature Yesterday

Maximum temperature yesterday: 86 °F (at 2:30 PM)
Minimum temperature yesterday: 72 °F (at 11:30 PM)
Average temperature yesterday: 79 °F

High & Low Weather Summary for the Past Weeks

 TemperatureHumidityPressure
High88 °F (Feb 13, 2:00 PM)100% (Jan 31, 1:30 AM)30.07 "Hg (Jan 31, 1:30 AM)
Low59 °F (Jan 30, 5:00 AM)27% (Feb 1, 1:00 PM)29.77 "Hg (Feb 11, 4:00 PM)
Average74 °F72%29.92 "Hg
* Reported Jan 29 3:30 PM — Feb 13 4:00 PM, Kolkata, Weather by CustomWeather, © 2016

Note: Actual official high and low records may vary slightly from our data, if they occured in-between our weather recording intervals... More about our weather records

Advertising

Kolkata Weather History for the Previous 24 Hours

 ConditionsComfort  
Time TempWeatherWind HumidityBarometerVisibility
4:00 PM
Sat, Feb 13
84 °FHaze.6 mph48%29.86 "Hg2 mi
3:30 PM86 °FHaze.6 mph40%29.86 "Hg2 mi
3:00 PM88 °FHaze.6 mph38%29.86 "Hg2 mi
2:30 PM88 °FHaze.5 mph38%29.86 "Hg2 mi
2:00 PM88 °FHaze.5 mph38%29.89 "Hg2 mi
1:30 PM86 °FHaze.6 mph40%29.89 "Hg2 mi
1:00 PM86 °FHaze.6 mph38%29.89 "Hg2 mi
12:30 PM86 °FHaze.7 mph38%29.89 "Hg2 mi
12:00 PM84 °FHaze.10 mph40%29.92 "Hg2 mi
11:30 AM84 °FHaze.10 mph40%29.92 "Hg2 mi
11:00 AM82 °FHaze.9 mph42%29.95 "Hg2 mi
10:30 AM81 °FHaze.10 mph48%29.95 "Hg2 mi
10:00 AM79 °FHaze.10 mph51%29.95 "Hg2 mi
9:30 AM77 °FHaze.9 mph57%29.98 "Hg2 mi
9:00 AM75 °FHaze.8 mph61%29.95 "Hg2 mi
8:30 AM73 °FHaze.7 mph74%29.95 "Hg1 mi
8:00 AM72 °FFog.5 mph78%29.95 "Hg1 mi
7:30 AM70 °FFog.5 mph83%29.92 "Hg1 mi
7:00 AM68 °FFog.5 mph88%29.92 "Hg1 mi
6:30 AM68 °FFog.5 mph88%29.92 "Hg1 mi
6:00 AM68 °FFog.3 mph88%29.89 "Hg1 mi
5:30 AM70 °FFog.3 mph88%29.89 "Hg1 mi
5:00 AM70 °FFog.3 mph88%29.86 "Hg1 mi
4:30 AM70 °FFog.3 mph88%29.86 "Hg1 mi
4:00 AM72 °FFog.5 mph88%29.86 "Hg1 mi
3:30 AM72 °FFog.6 mph88%29.86 "Hg1 mi
3:00 AM70 °FFog.6 mph88%29.86 "Hg1 mi
2:30 AM70 °FFog.6 mph94%29.86 "Hg1 mi
2:00 AM70 °FFog.3 mph94%29.86 "Hg1 mi
1:30 AM70 °FFog.3 mph94%29.89 "Hg1 mi
1:00 AM70 °FFog.5 mph94%29.89 "Hg1 mi
12:30 AM70 °FFog.No wind88%29.89 "Hg1 mi
12:00 AM70 °FFog.No wind88%29.89 "Hg1 mi
11:30 PM
Fri, Feb 12
72 °FFog.No wind78%29.89 "Hg1 mi
11:00 PM73 °FFog.No wind74%29.89 "Hg1 mi
10:30 PM73 °FFog.No wind74%29.86 "Hg1 mi
10:00 PM73 °FFog.No wind74%29.86 "Hg1 mi
9:30 PM73 °FFog.No wind74%29.86 "Hg1 mi
9:00 PM75 °FHaze.5 mph69%29.86 "Hg1 mi
8:30 PM75 °FHaze.No wind69%29.86 "Hg1 mi
8:00 PM75 °FHaze.No wind69%29.86 "Hg1 mi
7:30 PM77 °FHaze.5 mph61%29.86 "Hg1 mi
7:00 PM77 °FClear.5 mph57%29.83 "Hg1 mi
6:30 PM79 °FClear.5 mph54%29.83 "Hg1 mi
6:00 PM81 °FClear.5 mph51%29.83 "Hg1 mi
5:30 PM81 °FPassing clouds.5 mph51%29.80 "Hg1 mi
5:00 PM82 °FPassing clouds.7 mph48%29.80 "Hg1 mi
Weather by CustomWeather, © 2016

See weather overviewHow to use our weather pages